Regional Weather Roundup
Issued by NWS

Home | Current Version | Previous Version | Text Only | Print | Product List | Glossary Off
Versions: 1 2 3 4 5 6 7 8 9 10 11 12 13 14 15 16 17 18 19 20 21 22 23 24 25 26 27 28 29 30 31 32 33 34 35 36 37 38 39 40 41 42 43 44 45 46 47 48 49 50

000
ASUS43 KIND 021659
RWRIN

WEATHER ROUNDUP FOR INDIANA
NATIONAL WEATHER SERVICE INDIANAPOLIS IN
100 PM EDT WED SEP 02 2015

NOTE: "FAIR" INDICATES FEW OR NO CLOUDS BELOW 12,000 FEET WITH NO
SIGNIFICANT WEATHER AND/OR OBSTRUCTIONS TO VISIBILITY.

* - STATION DOES NOT REPORT WEATHER SUCH AS PRECIPITATION OR FOG.

+ - STATION NOT QUALITY CONTROLLED BY THE NATIONAL WEATHER SERVICE.
    USE DATA WITH CAUTION...ESPECIALLY DEWPOINT AND RELATIVE
    HUMIDITY OBSERVATIONS.

INZ001>003-010>013-019-020-021800-
NORTHWEST INDIANA

CITY           SKY/WX    TMP DP  RH WIND       PRES   REMARKS
GARY /AIRPORT/ MOSUNNY   88  66  48 SW3       30.05F
KNOX *+        SUNNY     86  68  54 CALM      30.06F
MONTICELLO +   MOSUNNY   84  73  68 W6        30.07F
RENSSELAER +   SUNNY     86  73  66 SW8       30.07F

$$

LMZ046-743>745-021800-
SOUTHERN LAKE MICHIGAN

STATION/POSITION TIME  TEMP    WIND        PRES    WAVE
                       AIR SEA DIR/SP/G            HT
                 (UTC) (F)     (DEG/KT/KT) (MB)    (FT)
BURNS HARBOR     1600   81     240/  4/  5 1018.3F
MICHIGAN CITY    1600   78     220/  6/  7   N/A
5NW MICH CITY    1600   76 72  250/  6/  6   N/A     1

$$

INZ004-005-014>016-021>024-021800-
NORTH CENTRAL INDIANA

CITY           SKY/WX    TMP DP  RH WIND       PRES   REMARKS
ELKHART        SUNNY     84  72  65 W7        30.06F
GOSHEN         SUNNY     86  72  62 MISG      30.06F
PERU/GRISSOM   MOSUNNY   87  71  58 W6        30.08F
SOUTH BEND     SUNNY     85  72  65 W8        30.06F

$$

INZ006>009-017-018-025>027-021800-
NORTHEAST INDIANA

CITY           SKY/WX    TMP DP  RH WIND       PRES   REMARKS
ANGOLA *+      SUNNY     90  73  58 W7        30.07F HX  98
FORT WAYNE     MOSUNNY   85  72  65 W7        30.09F

$$

INZ028-029-035-036-043>045-051>053-021800-
WEST CENTRAL INDIANA

CITY           SKY/WX    TMP DP  RH WIND       PRES   REMARKS
CRAWFORDSVL +  SUNNY     83  65  54 W7        30.11F
GREENCASTLE +  SUNNY     86  63  45 CALM      30.12F
LAFAYETTE      MOSUNNY   87  69  54 VRB3      30.08F
TERRE HAUTE    MOSUNNY   86  68  54 VRB6      30.10F

$$

INZ030>032-037>040-046>048-054>057-064-065-021800-
CENTRAL INDIANA

CITY           SKY/WX    TMP DP  RH WIND       PRES   REMARKS
ANDERSON       MOSUNNY   86  64  48 W6        30.12F
COLUMBUS       MOSUNNY   84  66  54 SW6       30.12F
FRANKFORT +    SUNNY     88  71  58 SW7       30.12F
GREENWOOD *+   MOSUNNY   84  66  54 SW5       30.12F
INDIANAPOLIS   PTSUNNY   86  68  54 VRB5      30.11F
-EAGLE CREEK   MOSUNNY   86  68  54 W7        30.10F
KOKOMO *+      MOSUNNY   86  70  58 NW5       30.09F
MT COMFORT *+  MOSUNNY   86  61  42 W6        30.11F
SHELBYVILLE    MOSUNNY   87  69  54 VRB5      30.11F

$$

INZ033-034-041-042-049-050-058-059-021800-
EAST CENTRAL INDIANA

CITY           SKY/WX    TMP DP  RH WIND       PRES   REMARKS
MUNCIE         SUNNY     83  71  67 W8        30.11F

$$

INZ060-061-067>069-081>083-085>088-021800-
SOUTHWEST INDIANA

CITY           SKY/WX    TMP DP  RH WIND       PRES   REMARKS
EVANSVILLE     SUNNY     87  65  47 VRB5      30.11F
HUNTINGBURG *+ PTSUNNY   88  66  48 SW8       30.12F

$$

INZ062-063-066-070>080-084-089>092-021800-
SOUTH CENTRAL AND SOUTHEAST INDIANA

CITY           SKY/WX    TMP DP  RH WIND       PRES   REMARKS
BLOOMINGTON    MOSUNNY   86  69  56 SW9       30.13F
SEYMOUR +      MOSUNNY   88  66  48 W3        30.11F

$$



USA.gov is the U.S. government's official web portal to all federal, state and local government web resources and services.